Location: Staunton
(38.1490°N, 79.0720°W)
Time: 09:16:54
(UTC-04:00)

ISS - Pass Details

Date: 15 October 2017
Orbit: 401 x 408 km, 51.6° (Epoch: 18 October)

Event Time Altitude Azimuth Distance (km) Brightness Sun altitude
Rises 20:10:18 0° 299° (WNW) 2,321 1.2 -18.9°
Reaches altitude 10° 20:12:34 10° 287° (WNW) 1,459 0.1 -19.3°
Maximum altitude 20:15:24 27° 227° (SW) 809 -1.9 -19.9°
Enters shadow 20:16:51 19° 185° (S) 1,019 -1.8 -20.2°
